St. Paul Lake Elmo, MN

6:16 AM CST on November 13, 2019 (GMT -0600)
St. Paul Lake Elmo

Weather History for K21D - September, 2019

Change the Weather History Date:

Wednesday, September 11, 2019

  Actual Average (KSTP) Record (KSTP)
Temperature  
Mean Temperature 60 °F -  
Max Temperature 64 °F 74 °F 96 °F (2012)
Min Temperature 55 °F 53 °F 43 °F (2014)
Degree Days  
Heating Degree Days 6    
Growing Degree Days 10 (Base 50)    
Moisture  
Dew Point 61 °F    
Average Humidity 97    
Maximum Humidity 100    
Minimum Humidity 88    
Precipitation  
Precipitation 0.71 in - - ()
Sea Level Pressure  
Sea Level Pressure 30.06 in    
Wind  
Wind Speed 8 mph (WSW)    
Max Wind Speed 16 mph    
Max Gust Speed 24 mph    
Visibility 9 miles    
Events Rain , Thunderstorm    
Averages and records for this station are not official NWS values.
T = Trace of Precipitation, MM = Missing Value Source: NWS Daily Summary

Daily Weather History Graph

Daily Weather History Graph

Search for Another Location

Airport or City:

Astronomy

Sep. 11, 2019 Rise Set
Actual Time 6:45 AM CDT 7:30 PM CDT
Civil Twilight 6:15 AM CDT 7:59 PM CDT
Nautical Twilight 5:40 AM CDT 8:35 PM CDT
Astronomical Twilight 5:03 AM CDT 9:11 PM CDT
Moon 6:50 PM CDT (9/11) 3:58 AM CDT (9/11)
Length of Visible Light 13h 44m
Length of Day
12h 45m
Waxing Gibbous, 95% of the Moon is Illuminated
Sep 11
Waxing Gibbous
Sep 13
Full
Sep 21
Last Quarter
Sep 28
New
Oct 5
First Quarter

Hourly Weather History & Observations

Time (CDT) Temp. Dew Point Humidity Pressure Visibility Wind Dir Wind Speed Gust Speed Precip Events Conditions
12:16 AM 62.6 °F 62.6 °F 100% 30.05 in 10.0 mi WSW 4.6 mph - N/A   Clear
12:35 AM 62.6 °F 62.6 °F 100% 30.05 in 10.0 mi WSW 5.8 mph - N/A   Clear
12:55 AM 62.6 °F 60.8 °F 94% 30.06 in 10.0 mi WSW 4.6 mph - N/A   Clear
12:56 AM 62.6 °F 60.8 °F 94% 30.06 in 10.0 mi WSW 3.5 mph - N/A   Clear
1:15 AM 62.6 °F 60.8 °F 94% 30.07 in 10.0 mi WSW 5.8 mph - N/A   Clear
1:37 AM 62.6 °F 60.8 °F 94% 30.07 in 10.0 mi WSW 3.5 mph - N/A   Clear
1:55 AM 62.6 °F 60.8 °F 94% 30.07 in 10.0 mi WSW 4.6 mph - N/A   Clear
2:15 AM 62.6 °F 60.8 °F 94% 30.07 in 10.0 mi WSW 4.6 mph - N/A   Scattered Clouds
2:16 AM 62.6 °F 60.8 °F 94% 30.07 in 10.0 mi WSW 4.6 mph - N/A   Scattered Clouds
2:35 AM 62.6 °F 60.8 °F 94% 30.06 in 10.0 mi WSW 9.2 mph - N/A   Mostly Cloudy
2:36 AM 62.6 °F 60.8 °F 94% 30.06 in 10.0 mi WSW 9.2 mph - N/A   Overcast
2:59 AM 62.6 °F 60.8 °F 94% 30.04 in 10.0 mi WSW 9.2 mph - N/A   Scattered Clouds
3:17 AM 62.6 °F 60.8 °F 94% 30.04 in 10.0 mi WSW 10.4 mph - N/A Thunderstorm Scattered Clouds
3:35 AM 62.6 °F 59.0 °F 88% 30.02 in 10.0 mi WSW 11.5 mph - N/A Thunderstorm Thunderstorm
3:36 AM 62.6 °F 59.0 °F 88% 30.02 in 10.0 mi WSW 11.5 mph - N/A   Mostly Cloudy
3:55 AM 60.8 °F 59.0 °F 94% 30.01 in 10.0 mi WSW 6.9 mph - N/A Rain Light Rain
3:56 AM 60.8 °F 59.0 °F 94% 30.02 in 10.0 mi WSW 6.9 mph - N/A Rain Light Rain
4:20 AM 60.8 °F 59.0 °F 94% 30.02 in 10.0 mi WSW 10.4 mph - 0.03 in Rain , Thunderstorm Thunderstorms and Rain
4:37 AM 60.8 °F 59.0 °F 94% 30.04 in 7.0 mi WSW 6.9 mph - 0.08 in Rain , Thunderstorm Thunderstorms and Rain
4:55 AM 60.8 °F 59.0 °F 94% 30.06 in 10.0 mi WSW 3.5 mph - 0.11 in Rain , Thunderstorm Thunderstorms and Rain
5:15 AM 60.8 °F 60.8 °F 100% 30.09 in 2.5 mi Calm Calm - 0.18 in Rain , Thunderstorm Heavy Thunderstorms and Rain
5:16 AM 60.8 °F 60.8 °F 100% 30.09 in 2.0 mi Calm Calm - 0.18 in Rain , Thunderstorm Heavy Thunderstorms and Rain
5:35 AM 60.8 °F 60.8 °F 100% 30.07 in 7.0 mi WSW 8.1 mph - 0.27 in Rain Rain
5:36 AM 60.8 °F 60.8 °F 100% 30.07 in 5.0 mi WSW 6.9 mph - 0.27 in Rain Rain
5:58 AM 60.8 °F 60.8 °F 100% 30.06 in 7.0 mi WSW 6.9 mph - 0.35 in Rain Rain
6:17 AM 60.8 °F 60.8 °F 100% 30.02 in 7.0 mi WSW 12.7 mph - 0.06 in Rain , Thunderstorm Light Thunderstorms and Rain
6:35 AM 60.8 °F 60.8 °F 100% 30.03 in 10.0 mi WSW 8.1 mph - 0.09 in Rain Light Rain
6:36 AM 60.8 °F 60.8 °F 100% 30.03 in 10.0 mi WSW 9.2 mph - 0.09 in Rain Light Rain
6:55 AM 60.8 °F 60.8 °F 100% 30.03 in 10.0 mi WSW 11.5 mph - 0.10 in Rain Rain
6:56 AM 60.8 °F 60.8 °F 100% 30.03 in 10.0 mi WSW 11.5 mph - 0.10 in Rain Rain
7:15 AM 60.8 °F 60.8 °F 100% 30.01 in 10.0 mi WSW 16.1 mph - 0.01 in Rain Light Rain
7:20 AM 60.8 °F 60.8 °F 100% 30.00 in 10.0 mi WSW 15.0 mph - 0.01 in Rain Light Rain
7:37 AM 62.6 °F 60.8 °F 94% 30.01 in 10.0 mi WSW 12.7 mph 24.2 mph 0.01 in Rain Light Rain
7:56 AM 62.6 °F 62.6 °F 100% 30.00 in 10.0 mi WSW 12.7 mph - 0.02 in   Overcast
8:15 AM 62.6 °F 62.6 °F 100% 30.00 in 10.0 mi WSW 11.5 mph 20.7 mph N/A   Overcast
8:16 AM 62.6 °F 62.6 °F 100% 30.00 in 10.0 mi WSW 10.4 mph 20.7 mph N/A   Mostly Cloudy
8:35 AM 62.6 °F 62.6 °F 100% 30.00 in 10.0 mi WSW 10.4 mph 17.3 mph N/A   Mostly Cloudy
8:36 AM 62.6 °F 62.6 °F 100% 30.00 in 10.0 mi WSW 9.2 mph 17.3 mph N/A   Mostly Cloudy
8:58 AM 62.6 °F 62.6 °F 100% 30.00 in 10.0 mi WSW 9.2 mph - N/A   Overcast
9:17 AM 64.4 °F 62.6 °F 94% 30.00 in 10.0 mi WSW 9.2 mph - N/A   Overcast
9:36 AM 62.6 °F 62.6 °F 100% 30.01 in 7.0 mi WSW 8.1 mph - 0.02 in Rain Heavy Rain
9:55 AM 64.4 °F 62.6 °F 94% 30.01 in 10.0 mi WSW 9.2 mph 18.4 mph 0.03 in   Light Drizzle
9:56 AM 64.4 °F 62.6 °F 94% 30.01 in 10.0 mi WSW 9.2 mph 18.4 mph 0.03 in   Overcast
10:15 AM 64.4 °F 62.6 °F 94% 30.02 in 5.0 mi WSW 4.6 mph - 0.01 in   Heavy Drizzle
10:20 AM 64.4 °F 62.6 °F 94% 30.03 in 5.0 mi WSW 6.9 mph - 0.01 in   Drizzle
10:37 AM 62.6 °F 62.6 °F 100% 30.04 in 10.0 mi WSW 9.2 mph - 0.02 in   Light Drizzle
10:56 AM 62.6 °F 60.8 °F 94% 30.05 in 4.0 mi WSW 9.2 mph - 0.05 in Rain Heavy Rain
11:16 AM 62.6 °F 60.8 °F 94% 30.05 in 4.0 mi WSW 5.8 mph - 0.02 in   Heavy Drizzle
11:36 AM 62.6 °F 60.8 °F 94% 30.05 in 7.0 mi WSW 6.9 mph - 0.03 in   Drizzle
11:58 AM 62.6 °F 62.6 °F 100% 30.05 in 5.0 mi WSW 9.2 mph - 0.04 in Rain Light Rain
12:17 PM 62.6 °F 62.6 °F 100% 30.05 in 7.0 mi WSW 10.4 mph - N/A   Light Drizzle
12:36 PM 62.6 °F 62.6 °F 100% 30.05 in 10.0 mi WSW 10.4 mph - N/A   Overcast
12:55 PM 62.6 °F 62.6 °F 100% 30.05 in 10.0 mi WSW 10.4 mph - N/A   Overcast
1:15 PM 62.6 °F 62.6 °F 100% 30.05 in 10.0 mi WSW 9.2 mph - N/A   Overcast
1:19 PM 62.6 °F 62.6 °F 100% 30.04 in 10.0 mi WSW 9.2 mph - N/A   Overcast
1:38 PM 62.6 °F 62.6 °F 100% 30.05 in 7.0 mi WSW 9.2 mph - N/A   Light Drizzle
1:56 PM 62.6 °F 62.6 °F 100% 30.06 in 7.0 mi WSW 9.2 mph - 0.01 in   Light Drizzle
2:15 PM 64.4 °F 62.6 °F 94% 30.05 in 10.0 mi WSW 4.6 mph - N/A   Overcast
2:35 PM 64.4 °F 62.6 °F 94% 30.05 in 10.0 mi WSW 8.1 mph - N/A   Overcast
2:39 PM 64.4 °F 62.6 °F 94% 30.05 in 10.0 mi WSW 9.2 mph - N/A   Overcast
2:57 PM 64.4 °F 62.6 °F 94% 30.06 in 10.0 mi WSW 9.2 mph - N/A   Overcast
3:15 PM 64.4 °F 62.6 °F 94% 30.07 in 10.0 mi WSW 9.2 mph - N/A   Overcast
3:36 PM 64.4 °F 62.6 °F 94% 30.07 in 10.0 mi WSW 9.2 mph - N/A   Overcast
3:55 PM 64.4 °F 62.6 °F 94% 30.07 in 10.0 mi WSW 8.1 mph - N/A   Overcast
4:19 PM 62.6 °F 62.6 °F 100% 30.07 in 7.0 mi WSW 6.9 mph - N/A   Overcast
4:37 PM 62.6 °F 62.6 °F 100% 30.08 in 7.0 mi Calm Calm - N/A   Overcast
4:56 PM 62.6 °F 62.6 °F 100% 30.09 in 5.0 mi Calm Calm - N/A   Overcast
5:15 PM 62.6 °F 62.6 °F 100% 30.09 in 4.0 mi Calm Calm - N/A   Overcast
5:16 PM 62.6 °F 62.6 °F 100% 30.09 in 4.0 mi Calm Calm - N/A   Overcast
5:39 PM 62.6 °F 60.8 °F 94% 30.09 in 4.0 mi WSW 8.1 mph - N/A   Overcast
5:56 PM 62.6 °F 60.8 °F 94% 30.09 in 5.0 mi WSW 10.4 mph - N/A   Overcast
6:15 PM 62.6 °F 60.8 °F 94% 30.09 in 10.0 mi WSW 9.2 mph 17.3 mph N/A   Overcast
6:16 PM 62.6 °F 60.8 °F 94% 30.09 in 10.0 mi WSW 8.1 mph 17.3 mph N/A   Overcast
6:35 PM 60.8 °F 60.8 °F 100% 30.09 in 10.0 mi WSW 10.4 mph - N/A   Overcast
6:36 PM 60.8 °F 60.8 °F 100% 30.09 in 10.0 mi WSW 10.4 mph - N/A   Overcast
6:59 PM 60.8 °F 60.8 °F 100% 30.09 in 10.0 mi WSW 11.5 mph - N/A   Overcast
7:16 PM 60.8 °F 60.8 °F 100% 30.09 in 10.0 mi WSW 12.7 mph 18.4 mph N/A   Overcast
7:36 PM 60.8 °F 60.8 °F 100% 30.10 in 10.0 mi WSW 9.2 mph - N/A   Overcast
7:55 PM 59.0 °F 59.0 °F 100% 30.11 in 7.0 mi WSW 9.2 mph - N/A   Overcast
7:56 PM 59.0 °F 59.0 °F 100% 30.11 in 7.0 mi WSW 11.5 mph 16.1 mph N/A   Overcast
8:15 PM 59.0 °F 59.0 °F 100% 30.10 in 7.0 mi WSW 13.8 mph 19.6 mph N/A   Overcast
8:37 PM 59.0 °F 59.0 °F 100% 30.11 in 10.0 mi WSW 12.7 mph 16.1 mph N/A   Overcast
8:55 PM 59.0 °F 57.2 °F 94% 30.11 in 10.0 mi WSW 11.5 mph - N/A   Overcast
9:15 PM 59.0 °F 57.2 °F 94% 30.12 in 10.0 mi WSW 12.7 mph - N/A   Overcast
9:16 PM 59.0 °F 57.2 °F 94% 30.12 in 10.0 mi WSW 10.4 mph - N/A   Overcast
9:35 PM 59.0 °F 57.2 °F 94% 30.11 in 10.0 mi WSW 10.4 mph 17.3 mph N/A   Overcast
9:36 PM 59.0 °F 57.2 °F 94% 30.11 in 10.0 mi WSW 10.4 mph 17.3 mph N/A   Overcast
9:59 PM 59.0 °F 55.4 °F 88% 30.11 in 10.0 mi WSW 9.2 mph 17.3 mph N/A   Overcast
10:16 PM 59.0 °F 55.4 °F 88% 30.12 in 10.0 mi WSW 9.2 mph - N/A   Overcast
10:35 PM 57.2 °F 55.4 °F 94% 30.12 in 10.0 mi WSW 15.0 mph 19.6 mph N/A   Overcast
10:55 PM 57.2 °F 55.4 °F 94% 30.12 in 10.0 mi WSW 9.2 mph - N/A   Overcast
10:56 PM 57.2 °F 55.4 °F 94% 30.12 in 10.0 mi WSW 10.4 mph - N/A   Overcast
11:15 PM 57.2 °F 55.4 °F 94% 30.12 in 10.0 mi WSW 9.2 mph - N/A   Overcast
11:19 PM 57.2 °F 55.4 °F 94% 30.12 in 10.0 mi WSW 10.4 mph 16.1 mph N/A   Overcast
11:37 PM 55.4 °F 55.4 °F 100% 30.11 in 7.0 mi WSW 11.5 mph - N/A   Overcast
11:56 PM 55.4 °F 55.4 °F 100% 30.12 in 5.0 mi WSW 9.2 mph - N/A   Overcast